User: anonymous   Login
Location: Wildlife_Club
(35.6000°N, 81.4330°W)
Time: 05:12:11
(UTC-04:00)
Language:

A-11 Canister half - Orbit

View from above orbital plane
View from above orbital plane
View from above satellite
View from above satellite

Ground track
Ground track

The orbit data is extracted from the following two-line orbital elements,

1    51U 60009C   19170.02434107 -.00000007  00000-0  75161-3 0  9991
2    51  47.2148  34.8694 0105282 158.6890 201.8329 12.18271890619654
Epoch (UTC): 19 June 2019 00:35:03
Eccentricity: 0.0105282
inclination: 47.2148°
perigee height: 1516 km
apogee height: 1684 km
right ascension of ascending node: 34.8694°
argument of perigee: 158.6890°
revolutions per day: 12.18271890
mean anomaly at epoch: 201.8329°
orbit number at epoch: 61965

The dashed part of the orbit path shows where the satellite is in the earth's shadow,  

DLR